Orbital Elements at Epoch 2459200.5 (2020-Dec-17.0) TDB
Reference: JPL 23 (heliocentric ecliptic J2000)
Element | Value | Uncertainty (1-sigma) | Units |
e | .1037804697575262 | 4.142e-08 | |
a | 2.286163249275108 | 7.9713e-09 | au |
q | 2.048904153322945 | 9.3418e-08 | au |
i | 6.239438552170503 | 4.1893e-06 | deg |
node | 299.5785059834397 | 4.0538e-05 | deg |
peri | 98.4027986871919 | 4.6605e-05 | deg |
M | 25.00066815295127 | 2.0971e-05 | deg |
tp | 2459112.818413310732 (2020-Sep-20.31841331) | 7.3593e-05 | TDB |
period | 1262.581104433814 3.46 | 6.6034e-06 1.808e-08 | d yr |
n | .2851301977637601 | 1.4913e-09 | deg/d |
Q | 2.523422345227271 | 8.7985e-09 | au |
|
| | Orbit Determination Parameters
Additional Information
|